Regional Weather Roundup
Issued by NWS

Home | Current Version | Previous Version | Text Only | Print | Product List | Glossary On
Versions: 1 2 3 4 5 6 7 8 9 10 11 12 13 14 15 16 17 18 19 20 21 22 23 24 25 26 27 28 29 30 31 32 33 34 35 36 37 38 39 40 41 42 43 44 45 46 47 48 49 50
000
ASUS43 KDTX 231310
RWRMI
MICHIGAN HOURLY REGIONAL WEATHER ROUNDUP
NATIONAL WEATHER SERVICE DETROIT/PONTIAC MI
900 AM EDT SAT MAY 23 2015

NOTE: "FAIR" INDICATES FEW OR NO CLOUDS BELOW 12,000 FEET WITH NO
SIGNIFICANT WEATHER AND/OR OBSTRUCTION TO VISIBILITY.

MIZ047>049-052>055-059>063-066>070-074>076-081>083-231400-
SOUTHEAST LOWER MICHIGAN

CITY           SKY/WX    TMP DP  RH WIND       PRES   REMARKS
ADRIAN         SUNNY     56  39  53 S6        30.41R
ALMA           SUNNY     54  41  61 SW7       30.38S
ANN ARBOR      SUNNY     54  43  66 VRB3      30.41R
BAD AXE        SUNNY     52  29  41 SW9       30.38S
CARO           SUNNY     54  37  52 S7        30.37S
DETROIT CITY   SUNNY     54  41  61 SE7       30.42R
DETROIT        MOSUNNY   55  40  56 CALM      30.42R
FLINT          SUNNY     57  37  47 S9        30.39F
GROSSE ILE     SUNNY     54  43  66 CALM      30.40S
HILLSDALE      SUNNY     56  41  56 SE3       30.39R
HOWELL         SUNNY     55  40  57 S6        30.40R

CITY           SKY/WX    TMP DP  RH WIND       PRES   REMARKS
JACKSON        SUNNY     56  43  61 VRB3      30.40R
LAMBERTVILLE   SUNNY     59  39  47 S5        30.41R
LANSING        SUNNY     56  41  57 S8        30.39S
LAPEER         FAIR      55  34  44 SW9       30.39S
MASON          SUNNY     53  42  65 S7        30.39S
MONROE         SUNNY     59  45  58 S3        30.39S
MT. CLEMENS    MOSUNNY   55  41  59 SE9       30.39R
PONTIAC        MOSUNNY   54  36  50 S5        30.40R
PORT HOPE        N/A     53  29  39 VRB5      30.36S
PORT HURON     SUNNY     52  34  50 S7        30.41S
TRI CITIES     SUNNY     53  38  56 SW10      30.38S
MIDLAND        FAIR      51  38  60 CALM      30.37S
TROY           SUNNY     52  37  56 S3        30.42S
SAGINAW HB     SUNNY     52  36  54 S9        30.37S
$$
MIZ043>046-050>051-056>058-064>065-071>073-077>080-231400-
SOUTHWEST LOWER MICHIGAN

CITY           SKY/WX    TMP DP  RH WIND       PRES   REMARKS
BATTLE CREEK   SUNNY     57  40  52 SE6       30.39R
BENTON HARBOR  SUNNY     57  39  51 SE7       30.36R
BIG RAPIDS     SUNNY     50  36  59 NW3       30.36S
COLDWATER      SUNNY     54  41  61 SE7       30.38S
FREMONT        FAIR      53  32  45 S3        30.36F
HOLLAND        SUNNY     57  38  48 SE5       30.37S
GRAND RAPIDS   MOSUNNY   57  41  55 SE5       30.37S
IONIA          FAIR      56  39  52 S7        30.37R
KALAMAZOO      SUNNY     57  40  52 S5        30.38S
LUDINGTON      SUNNY     58  34  39 SW8       30.35S
MARSHALL       SUNNY     55  41  60 SE3       30.38S
MOUNT PLEASANT SUNNY     54  38  54 SW5       30.37S
MUSKEGON       SUNNY     55  38  52 S3        30.37S
SOUTH HAVEN    SUNNY     58  36  42 SE5       30.36S
$$
MIZ016>042-231400-
NORTHERN LOWER MICHIGAN

CITY           SKY/WX    TMP DP  RH WIND       PRES   REMARKS
ALPENA         SUNNY     53  29  39 SW10      30.33F
BEAVER ISLAND  SUNNY     54  27  35 SW15G24   30.29S
BELLAIRE       SUNNY     54  29  39 S3        30.34S
CADILLAC       SUNNY     54  32  44 SW9       30.34S
CHARLEVOIX     SUNNY     55  30  38 SW10G17   30.33F
FRANKFORT      SUNNY     59  22  24 SW7       30.34S
GAYLORD        SUNNY     53  25  33 SW14      30.33S
GRAYLING       SUNNY     54  28  37 S6        30.34F
HARBOR SPRINGS SUNNY     51  29  42 SW6       30.31F
HOUGHTON LAKE  SUNNY     53  31  42 SW8       30.36S
MANISTEE       SUNNY     48  34  57 E3        30.36S
OSCODA         SUNNY     52  32  46 SW9       30.35F
PELLSTON       SUNNY     56  26  31 SW14      30.30S
ROGERS CITY    SUNNY     56  28  35 SW13G18   30.30F
TRAVERSE CITY  MOSUNNY   56  30  37 W9        30.33S
$$
MIZ007>008-015-231400-
EASTERN UPPER MICHIGAN

CITY           SKY/WX    TMP DP  RH WIND       PRES   REMARKS
KINROSS        SUNNY     50  34  53 SW7       30.24F
MACKINAC ISLAN SUNNY     52  34  50 SW8G17    30.27F
NEWBERRY       SUNNY     51  32  48 SW15G22   30.23S
S. S. MARIE    MOSUNNY   45  34  65 VRB5      30.24F
MUNISING         N/A     57  32  38 SW12      30.20F
$$
MIZ004>006-011>014-085-231400-
CENTRAL UPPER MICHIGAN

CITY           SKY/WX    TMP DP  RH WIND       PRES   REMARKS
MANISTIQUE     SUNNY     48  39  71 S12       30.26S
ESCANABA       SUNNY     50  34  53 SW6       30.27S
MENOMINEE      SUNNY     54  34  47 W10G18    30.29S
SAWYER-GWINN   SUNNY     54  34  47 SW10      30.23S
$$
MIZ001>003-009>011-084-231400-
WESTERN UPPER MICHIGAN

CITY           SKY/WX    TMP DP  RH WIND       PRES   REMARKS
IRON MOUNTAIN  SUNNY     56  37  49 CALM      30.25F
HOUGHTON       SUNNY     65  34  31 W20G31    30.17S
COPPER HARBOR    N/A     70  33  25 NW15G29   30.12R
IRONWOOD       SUNNY     63  39  42 SW8       30.22R
$$

ABBREVIATIONS USED IN REMARKS
   TC - TEMPERATURE IN CELSIUS
  WCI - WIND CHILL INDEX
   HX - HEAT INDEX
  VSB - VISIBILITY



USA.gov is the U.S. government's official web portal to all federal, state and local government web resources and services.